Regional Weather Roundup
Issued by NWS Little Rock, AR

Home | Current Version | Previous Version | Graphics & Text | Print | Product List | Glossary On
Versions: 1 2 3 4 5 6 7 8 9 10 11 12 13 14 15 16 17 18 19 20 21 22 23 24 25 26 27
000
ASUS44 KLZK 191305
RWRLZK

WEATHER ROUNDUP FOR ARKANSAS
NATIONAL WEATHER SERVICE LITTLE ROCK AR
800 AM CDT SAT APR 19 2014

NOTE: "FAIR" INDICATES FEW OR NO CLOUDS BELOW 12,000 FEET WITH NO
SIGNIFICANT WEATHER AND/OR OBSTRUCTIONS TO VISIBILITY.

ARZ001-003-010-029-191400-
NORTHWEST ARKANSAS

CITY           SKY/WX    TMP DP  RH WIND       PRES   REMARKS
FAYETTEVILLE   SUNNY     47  45  93 CALM      30.23R
FORT SMITH     MOSUNNY   55  50  83 CALM      30.22R
HARRISON       SUNNY     52  44  74 E3        30.24R
BENTONVILLE    SUNNY     55  45  67 SE6       30.23R
ROGERS         SUNNY     54  46  74 E10       30.23R
SILOAM SPGS    SUNNY     54  41  62 E5        30.23R
HIGHFILL       SUNNY     51  45  79 CALM      30.22R
SPRINGDALE     SUNNY     52  46  82 SE5       30.24R
$$

ARZ004-005-016-191400-
NORTH CENTRAL ARKANSAS

CITY           SKY/WX    TMP DP  RH WIND       PRES   REMARKS
BATESVILLE     SUNNY     50  46  87 W6        30.24R
FLIPPIN        SUNNY     48  39  71 CALM      30.25R
MTN HOME       SUNNY     55  43  63 CALM      30.24R
$$

ARZ040-041-191400-
WEST CENTRAL ARKANSAS

CITY           SKY/WX    TMP DP  RH WIND       PRES   REMARKS
MENA           MOSUNNY   52 N/A N/A CALM      30.22S
MOUNT IDA      SUNNY     48  46  93 CALM      30.20R
$$

ARZ009-017-025-026-028-191400-
NORTHEAST ARKANSAS

CITY           SKY/WX    TMP DP  RH WIND       PRES   REMARKS
CORNING        FAIR      55  46  71 N5        30.25R
JONESBORO      SUNNY     58  45  62 NE3       30.23R
NEWPORT        SUNNY     54  50  86 N5        30.25R
WALNUT RIDGE   SUNNY     54  46  76 N7        30.24R
BLYTHEVILLE    SUNNY     57  51  80 CALM      30.23R
$$

ARZ022-023-033-042-044-191400-
CENTRAL ARKANSAS

CITY           SKY/WX    TMP DP  RH WIND       PRES   REMARKS
LITTLE ROCK    MOSUNNY   57  52  83 CALM      30.23R
N LITTLE ROCK    N/A     60  55  82 NE3       30.23R
JACKSONVILLE   SUNNY     53  50  88 CALM      30.23R
SEARCY         SUNNY     56  50  80 NW3       30.25R
HOT SPRINGS    SUNNY     52  47  83 CALM      30.22S
RUSSELLVILLE   SUNNY     52  48  86 CALM      30.22R
CLINTON        FAIR      48  46  93 CALM      30.25S
$$

ARZ036-191400-
EAST ARKANSAS

CITY           SKY/WX    TMP DP  RH WIND       PRES   REMARKS
WEST MEMPHIS   SUNNY     58  54  86 CALM      30.20S
$$

ARZ050-053-066-070-073-191400-
SOUTHWEST ARKANSAS

CITY           SKY/WX    TMP DP  RH WIND       PRES   REMARKS
ARKADELPHIA    FAIR      54  51  89 CALM      30.22S
CAMDEN         SUNNY     50  48  93 MISG      30.21S FOG
TEXARKANA      SUNNY     54  50  86 CALM      30.21R
EL DORADO      SUNNY     53  52  96 CALM      30.21R
DE QUEEN       SUNNY     50  48  93 CALM      30.20R FOG
$$

ARZ056-057-069-191400-
SOUTHEAST ARKANSAS

CITY           SKY/WX    TMP DP  RH WIND       PRES   REMARKS
PINE BLUFF     SUNNY     56  53  90 CALM      30.22R
STUTTGART      SUNNY     57  54  88 N5        30.24R
MONTICELLO     SUNNY     55  52  89 CALM      30.21R

$$





USA.gov is the U.S. government's official web portal to all federal, state and local government web resources and services.